Regional Weather Roundup
Issued by NWS Huntsville, AL

Home | Current Version | Previous Version | Text Only | Print | Product List | Glossary On
Versions: 1 2 3 4 5 6 7 8 9 10 11 12 13 14 15 16 17 18 19 20 21 22 23 24 25 26 27 28 29 30 31 32 33 34 35 36 37 38 39 40 41 42 43 44 45 46 47 48 49
000
ASUS44 KHUN 310410
RWRHUN

WEATHER ROUNDUP FOR THE TENNESSEE VALLEY
NATIONAL WEATHER SERVICE HUNTSVILLE AL
1000 PM CST FRI JAN 30 2015

ALZ001>004-310500-
NORTHWEST ALABAMA

CITY           SKY/WX    TMP DP  RH WIND       PRES   REMARKS
COURTLAND HCN    N/A     30 N/A N/A CALM        N/A
RUSSELLVILLE     N/A     25 N/A N/A MISG        N/A
SHOALS AIRPORT CLEAR     38  21  50 NE3       30.43S
SHOALS TVA RES   N/A     37 N/A N/A MISG        N/A
$$

ALZ005>007-016-310500-
NORTH CENTRAL ALABAMA

CITY           SKY/WX    TMP DP  RH WIND       PRES   REMARKS
CULLMAN AG STN   N/A     34 N/A N/A NE5         N/A  WCI  30
DECATUR AP     CLEAR     30  22  72 N5        30.42F WCI  25
HUNTSVILLE AP  FAIR      36  20  52 NE7       30.41S WCI  30
HUN NWS/UAH      N/A     36  18  47 NE3         N/A
MERIDIANVILLE  CLEAR     30  19  64 CALM      30.41S
REDSTONE ARSN  FAIR      33  20  60 N3        30.41S
$$

ALZ008>010-310500-
NORTHEAST ALABAMA

CITY           SKY/WX    TMP DP  RH WIND       PRES   REMARKS
ALBERTVILLE    CLEAR     34  27  75 N3        30.37F
FORT PAYNE     CLEAR     28  21  74 CALM      30.38F
SCOTTSBORO AP  CLEAR     32  23  69 CALM      30.41S
VALLEY HEAD      N/A     27 N/A N/A MISG        N/A
$$

TNZ076-096-097-310500-
SOUTHEASTERN MIDDLE TENNESSEE

CITY           SKY/WX    TMP DP  RH WIND       PRES   REMARKS
TULLAHOMA      CLEAR     25  19  80 CALM      30.40F
WINCHESTER     CLEAR     23  19  86 CALM      30.41S
$$

...SURROUNDING SITES...

CITY           SKY/WX    TMP DP  RH WIND       PRES   REMARKS
ATLANTA        PTCLDY    37  19  48 N8        30.34R WCI  31
ANNISTON       CLEAR     38  21  50 N5        30.39R WCI  34
BIRMINGHAM     CLEAR     33  25  72 E3        30.41S
CHATTANOOGA    PTCLDY    33  21  61 NW6       30.41S WCI  28
CORINTH        FAIR      30  27  86 CALM      30.42S
DALTON         CLEAR     32  23  69 CALM      30.39S
GADSDEN        CLEAR     34  21  60 N6        30.40S WCI  29
GOLDEN TRNGL   PTCLDY    37  25  60 NE5       30.40S WCI  34
HALEYVILLE       N/A     27  23  84 CALM      30.42S
JACKSON TN     CLEAR     26  20  77 CALM      30.43F
LEWISBURG      FAIR      24  19  81 CALM      30.42S
MEMPHIS        PTCLDY    39  24  55 NE6       30.42F WCI  35
MURFREESBORO   FAIR      30  21  69 CALM      30.44R
NASHVILLE      CLEAR     33  20  58 N7        30.45R WCI  27
OXFORD MS      FAIR      32  23  69 CALM      30.43F
ROME           CLEAR     35  21  56 N3        30.38S
SAVANNAH       CLEAR     27  19  74 CALM      30.43S
TUPELO         CLEAR     32  24  72 NE5       30.43R WCI  27
TUSCALOOSA     PTCLDY    38  25  59 NE5       30.41S WCI  34
$$

...GULF COAST WEATHER...

CITY           SKY/WX    TMP DP  RH WIND       PRES   REMARKS
GULFPORT       PTCLDY    48  32  53 N7        30.36R
PASCAGOULA     PTCLDY    42  32  67 N6        30.36S
MOBILE         PTCLDY    44  31  60 N7        30.36S
GULF SHORES    PTCLDY    47  33  57 N5        30.35S
PENSACOLA      PTCLDY    48  32  53 N6        30.34R
DESTIN         MOCLDY    51  33  50 N6        30.34R
PANAMA CITY    PTCLDY    49  33  54 N5        30.33R
APPALACHICOLA  PTCLDY    43  35  73 CALM      30.31R
$$




USA.gov is the U.S. government's official web portal to all federal, state and local government web resources and services.